TimeEDT,TemperatureF,Dew PointF,Humidity,Sea Level PressureIn,VisibilityMPH,Wind Direction,Wind SpeedMPH,Gust SpeedMPH,PrecipitationIn,Events,Conditions,WindDirDegrees,DateUTC
12:53 AM,55.0,53.1,93,30.13,7.0,Calm,Calm,-,N/A,,Clear,0,2013-08-05 04:53:00
1:33 AM,51.8,51.8,100,30.14,2.5,Calm,Calm,-,N/A,,Clear,0,2013-08-05 05:33:00
1:40 AM,51.8,50.0,94,30.14,3.0,Calm,Calm,-,N/A,,Clear,0,2013-08-05 05:40:00
1:53 AM,51.1,50.0,96,30.13,3.0,Calm,Calm,-,N/A,,Clear,0,2013-08-05 05:53:00
2:02 AM,51.8,50.0,94,30.14,1.2,Calm,Calm,-,N/A,,Clear,0,2013-08-05 06:02:00
2:04 AM,51.8,50.0,94,30.14,0.8,Calm,Calm,-,N/A,,Clear,0,2013-08-05 06:04:00
2:26 AM,51.8,50.0,94,30.14,0.2,Calm,Calm,-,N/A,Fog,Fog,0,2013-08-05 06:26:00
2:53 AM,51.1,50.0,96,30.13,0.8,Calm,Calm,-,N/A,,Clear,0,2013-08-05 06:53:00
2:55 AM,51.8,50.0,94,30.14,1.2,Calm,Calm,-,N/A,,Clear,0,2013-08-05 06:55:00
3:13 AM,50.0,48.2,94,30.13,1.0,Calm,Calm,-,N/A,,Clear,0,2013-08-05 07:13:00
3:24 AM,50.0,48.2,94,30.13,2.0,Calm,Calm,-,N/A,,Clear,0,2013-08-05 07:24:00
3:35 AM,51.8,50.0,94,30.13,3.0,Calm,Calm,-,N/A,,Clear,0,2013-08-05 07:35:00
3:53 AM,51.1,50.0,96,30.13,2.5,Calm,Calm,-,N/A,,Clear,0,2013-08-05 07:53:00
3:58 AM,51.8,51.8,100,30.14,1.8,Calm,Calm,-,N/A,,Clear,0,2013-08-05 07:58:00
4:10 AM,51.8,50.0,94,30.14,1.0,Calm,Calm,-,N/A,,Clear,0,2013-08-05 08:10:00
4:18 AM,51.8,50.0,94,30.14,0.5,Calm,Calm,-,N/A,Fog,Fog,0,2013-08-05 08:18:00
4:26 AM,51.8,50.0,94,30.14,1.2,Calm,Calm,-,N/A,,Clear,0,2013-08-05 08:26:00
4:28 AM,51.8,50.0,94,30.14,3.0,Calm,Calm,-,N/A,,Clear,0,2013-08-05 08:28:00
4:53 AM,51.1,50.0,96,30.13,2.0,Calm,Calm,-,N/A,,Clear,0,2013-08-05 08:53:00
5:00 AM,51.8,48.2,88,30.14,1.2,Calm,Calm,-,N/A,,Clear,0,2013-08-05 09:00:00
5:07 AM,51.8,50.0,94,30.14,2.5,Calm,Calm,-,N/A,,Clear,0,2013-08-05 09:07:00
5:15 AM,51.8,50.0,94,30.14,5.0,Calm,Calm,-,N/A,,Clear,0,2013-08-05 09:15:00
5:53 AM,51.1,50.0,96,30.13,5.0,Calm,Calm,-,N/A,,Clear,0,2013-08-05 09:53:00
6:19 AM,50.0,48.2,94,30.14,2.0,Calm,Calm,-,N/A,,Clear,0,2013-08-05 10:19:00
6:27 AM,50.0,48.2,94,30.14,1.2,Calm,Calm,-,N/A,,Clear,0,2013-08-05 10:27:00
6:29 AM,50.0,48.2,94,30.14,0.8,Calm,Calm,-,N/A,,Clear,0,2013-08-05 10:29:00
6:53 AM,48.9,48.0,97,30.14,0.2,Calm,Calm,-,N/A,Fog,Fog,0,2013-08-05 10:53:00
7:04 AM,50.0,48.2,94,30.14,0.2,Calm,Calm,-,N/A,Fog,Fog,0,2013-08-05 11:04:00
7:18 AM,51.8,51.8,100,30.14,0.2,Calm,Calm,-,N/A,Fog,Fog,0,2013-08-05 11:18:00
7:28 AM,51.8,51.8,100,30.15,1.5,Calm,Calm,-,N/A,,Clear,0,2013-08-05 11:28:00
7:30 AM,51.8,51.8,100,30.15,4.0,Calm,Calm,-,N/A,,Clear,0,2013-08-05 11:30:00
7:53 AM,55.9,54.0,93,30.15,5.0,Calm,Calm,-,N/A,,Clear,0,2013-08-05 11:53:00
8:53 AM,61.0,57.0,87,30.15,10.0,Calm,Calm,-,N/A,,Clear,0,2013-08-05 12:53:00
9:53 AM,66.9,55.9,68,30.14,10.0,SE,6.9,-,0.01,,Clear,130,2013-08-05 13:53:00
10:53 AM,70.0,55.9,61,30.13,10.0,South,5.8,-,N/A,,Clear,170,2013-08-05 14:53:00
11:53 AM,72.0,54.0,53,30.12,10.0,Calm,Calm,-,N/A,,Clear,0,2013-08-05 15:53:00
12:53 PM,73.9,54.0,50,30.10,10.0,NE,3.5,-,N/A,,Clear,40,2013-08-05 16:53:00
1:53 PM,73.9,52.0,46,30.08,10.0,East,3.5,-,N/A,,Mostly Cloudy,90,2013-08-05 17:53:00
2:53 PM,75.0,55.0,50,30.07,10.0,Calm,Calm,-,N/A,,Overcast,0,2013-08-05 18:53:00
3:53 PM,75.9,55.0,48,30.06,10.0,Calm,Calm,-,N/A,,Partly Cloudy,0,2013-08-05 19:53:00
4:53 PM,73.9,53.1,48,30.06,10.0,Calm,Calm,-,N/A,,Partly Cloudy,0,2013-08-05 20:53:00
5:53 PM,73.9,55.0,52,30.05,10.0,Calm,Calm,-,N/A,,Clear,0,2013-08-05 21:53:00
6:53 PM,72.0,55.0,55,30.05,10.0,Calm,Calm,-,N/A,,Clear,0,2013-08-05 22:53:00
7:53 PM,69.1,59.0,70,30.02,10.0,ESE,3.5,-,N/A,,Clear,120,2013-08-05 23:53:00
8:53 PM,64.9,57.9,78,30.03,10.0,Calm,Calm,-,N/A,,Clear,0,2013-08-06 00:53:00
9:53 PM,64.0,60.1,87,30.03,10.0,Calm,Calm,-,N/A,,Mostly Cloudy,0,2013-08-06 01:53:00
10:53 PM,64.0,60.1,87,30.01,10.0,Calm,Calm,-,N/A,,Mostly Cloudy,0,2013-08-06 02:53:00
11:53 PM,64.9,61.0,87,30.01,8.0,SSE,3.5,-,0.01,Rain,Light Rain,160,2013-08-06 03:53:00